Location: Andiroba
(19.8650°S, 43.9258°W)
Time: 00:14:41
(UTC+00:00)

Atlas Centaur 2 - Pass Details

Date: 15 June 2024
Orbit: 457 x 1275 km, 30.4° (Epoch: 24 July)

Event Time Altitude Azimuth Distance (km) Brightness Sun altitude
Exits shadow 08:51:57 - 270° (W) 2,213 3.8 -8.7°
Reaches altitude 10° 08:52:18 10° 269° (W) 2,086 3.7 -8.6°
Maximum altitude 08:56:44 38° 201° (SSW) 885 2.1 -7.6°
Drops below altitude 10° 09:00:28 10° 130° (SE) 1,743 4.3 -6.8°
Sets 09:02:37 0° 122° (ESE) 2,563 5.3 -6.4°
